Akron Canton, OH

5:00 PM EDT on March 23, 2017 (GMT -0400)
Akron-Canton Regional

Weather History for KCAK - April, 2013

Change the Weather History Date:

Thursday, April 11, 2013

  Actual Average Record
Temperature  
Mean Temperature 53 °F 48 °F  
Max Temperature 58 °F 58 °F 87 °F (1930)
Min Temperature 48 °F 37 °F 20 °F (1909)
Degree Days  
Heating Degree Days 12 17  
Month to date heating degree days 195 213  
Since 1 July heating degree days 5399 5608  
Cooling Degree Days 0 0  
Month to date cooling degree days 0 0  
Year to date cooling degree days 0 0  
Growing Degree Days 2 (Base 50)    
Moisture  
Dew Point 51 °F    
Average Humidity 93    
Maximum Humidity 100    
Minimum Humidity 86    
Precipitation  
Precipitation 0.25 in 0.12 in 1.04 in (1981)
Month to date precipitation 2.37 1.31  
Year to date precipitation 8.62 9.21  
Snow  
Snow 0.00 in 0.10 in - ()
Month to date snowfall T 1.6  
Since 1 July snowfall 46.9 46.3  
Snow Depth 0.00 in    
Sea Level Pressure  
Sea Level Pressure 29.79 in    
Wind  
Wind Speed 8 mph (ENE)    
Max Wind Speed 18 mph    
Max Gust Speed 23 mph    
Visibility 3 miles    
Events Fog , Rain , Thunderstorm    
T = Trace of Precipitation, MM = Missing Value Source: NWS Daily Summary

Daily Weather History Graph

Daily Weather History Graph

Search for Another Location

Airport or City:

Trip Planner

Search our weather history database for the weather conditions in past years. The results will help you decide how hot, cold, wet, or windy it might be!

Date:

Astronomy

Apr. 11, 2013 Rise Set
Actual Time 6:52 AM EDT 8:01 PM EDT
Civil Twilight 6:24 AM EDT 8:29 PM EDT
Nautical Twilight 5:50 AM EDT 9:03 PM EDT
Astronomical Twilight 5:15 AM EDT 9:39 PM EDT
Moon 7:22 AM EDT (4/11) 9:35 PM EDT (4/11)
Length of Visible Light 14h 05m
Length of Day
13h 08m
New Moon, 2% of the Moon is Illuminated
Apr 11
New Moon
Apr 18
First Quarter
Apr 25
Full
May 2
Last Quarter
May 9
New

Hourly Weather History & Observations

Time (EDT) Temp. Dew Point Humidity Pressure Visibility Wind Dir Wind Speed Gust Speed Precip Events Conditions
12:23 AM 53.6 °F 51.8 °F 94% 29.90 in 5.0 mi West 6.9 mph - 0.04 in Rain Light Rain
12:39 AM 53.6 °F 51.8 °F 94% 29.88 in 3.0 mi NNW 3.5 mph - 0.10 in Rain Rain
12:51 AM 53.1 °F 52.0 °F 96% 29.89 in 3.0 mi NW 5.8 mph - 0.12 in Rain , Thunderstorm Light Thunderstorms and Rain
1:03 AM 53.6 °F 51.8 °F 94% 29.91 in 3.0 mi NW 5.8 mph - 0.02 in Rain , Thunderstorm Thunderstorms and Rain
1:51 AM 52.0 °F 50.0 °F 93% 29.89 in 4.0 mi Calm Calm - 0.11 in Rain Rain
2:51 AM 53.1 °F 51.1 °F 93% 29.84 in 3.0 mi East 4.6 mph - 0.06 in   Overcast
3:51 AM 53.1 °F 52.0 °F 96% 29.80 in 3.0 mi ENE 6.9 mph - 0.01 in   Overcast
4:03 AM 53.6 °F 51.8 °F 94% 29.80 in 0.8 mi NE 8.1 mph - N/A   Overcast
4:24 AM 53.6 °F 53.6 °F 100% 29.81 in 0.5 mi East 5.8 mph - N/A Fog Fog
4:32 AM 53.6 °F 53.6 °F 100% 29.81 in 0.2 mi ESE 6.9 mph - N/A Fog Fog
4:51 AM 53.1 °F 52.0 °F 96% 29.79 in 0.2 mi East 6.9 mph - N/A Fog Fog
5:03 AM 53.6 °F 51.8 °F 94% 29.80 in 0.2 mi East 5.8 mph - N/A Fog Fog
5:51 AM 50.0 °F 48.9 °F 96% 29.81 in 0.2 mi ENE 8.1 mph - N/A Fog Fog
6:51 AM 48.9 °F 48.0 °F 97% 29.82 in 0.2 mi ENE 5.8 mph - N/A Fog Fog
7:51 AM 48.9 °F 48.0 °F 97% 29.83 in 0.2 mi ENE 4.6 mph - N/A Fog Fog
8:51 AM 48.9 °F 46.9 °F 93% 29.87 in 0.2 mi North 10.4 mph - N/A Fog Fog
9:51 AM 48.0 °F 46.9 °F 96% 29.86 in 0.2 mi ENE 4.6 mph - N/A Fog Fog
10:51 AM 48.9 °F 48.0 °F 97% 29.88 in - Calm Calm - N/A Fog Fog
11:46 AM 50.0 °F 48.2 °F 94% 29.84 in 0.2 mi SE 5.8 mph - 0.00 in Fog , Rain Light Rain
11:51 AM 51.1 °F 50.0 °F 96% 29.85 in 1.5 mi ESE 5.8 mph - 0.00 in Rain Light Rain
12:30 PM 53.6 °F 51.8 °F 94% 29.77 in 2.0 mi SE 15.0 mph - 0.01 in Rain Light Rain
12:51 PM 55.0 °F 53.1 °F 93% 29.74 in 2.0 mi SE 15.0 mph - 0.01 in   Overcast
1:06 PM 57.2 °F 55.4 °F 94% 29.75 in 4.0 mi SSE 11.5 mph - N/A   Overcast
1:31 PM 55.4 °F 53.6 °F 94% 29.80 in 4.0 mi North 10.4 mph 23.0 mph N/A   Overcast
1:51 PM 55.0 °F 52.0 °F 89% 29.80 in 4.0 mi North 10.4 mph - N/A   Overcast
2:51 PM 54.0 °F 52.0 °F 93% 29.77 in 3.0 mi East 13.8 mph - 0.00 in Rain Light Rain
3:51 PM 52.0 °F 50.0 °F 93% 29.78 in 3.0 mi ENE 9.2 mph - 0.01 in   Overcast
4:51 PM 52.0 °F 50.0 °F 93% 29.77 in 3.0 mi NNE 8.1 mph - N/A   Overcast
5:34 PM 53.6 °F 50.0 °F 88% 29.74 in 3.0 mi East 9.2 mph - N/A   Overcast
5:51 PM 54.0 °F 51.1 °F 90% 29.74 in 4.0 mi East 9.2 mph - N/A   Overcast
6:51 PM 54.0 °F 51.1 °F 90% 29.73 in 4.0 mi ENE 9.2 mph - N/A   Overcast
7:51 PM 54.0 °F 51.1 °F 90% 29.69 in 4.0 mi ENE 11.5 mph - N/A   Overcast
8:51 PM 53.1 °F 50.0 °F 89% 29.66 in 6.0 mi ENE 15.0 mph 20.7 mph N/A   Overcast
9:51 PM 54.0 °F 51.1 °F 90% 29.63 in 7.0 mi East 12.7 mph - N/A   Overcast
10:51 PM 54.0 °F 51.1 °F 90% 29.58 in 7.0 mi East 13.8 mph - N/A   Overcast
11:51 PM 55.0 °F 50.0 °F 83% 29.57 in 8.0 mi ESE 9.2 mph 18.4 mph 0.00 in Rain Light Rain